Weather Roundup
Issued by NWS Chicago, IL

Home | Current Version | Previous Version | Text Only | Print | Product List | Glossary Off
Versions: 1 2 3 4 5 6 7 8 9 10 11 12 13 14 15 16 17 18 19 20 21 22 23 24 25 26 27 28 29 30 31 32 33 34 35 36 37 38 39 40 41 42 43 44 45 46 47 48 49 50

000
NZUS59 KLOT 200804
HRRLOT

CHICAGO AREA WEATHER ROUNDUP
NATIONAL WEATHER SERVICE CHICAGO/ROMEOVILLE IL
300 AM CDT SUN AUG 20 2017

NOTE: "FAIR" INDICATES FEW OR NO CLOUDS BELOW 12,000 FEET WITH NO
SIGNIFICANT WEATHER AND/OR OBSTRUCTIONS TO VISIBILITY.

* THESE STATIONS ARE NOT UNDER NWS QUALITY CONTROL. THEY ALSO MAY NOT
  REPORT WEATHER SUCH AS PRECIPITATION OR FOG.

ILZ005-006-012>014-019>023-200900-
NORTHEAST ILLINOIS

CITY           SKY/WX    TMP DP  RH WIND       PRES   REMARKS
OHARE          CLEAR     66  56  70 S3        30.00S
MIDWAY         CLEAR     70  58  65 S6        30.00F
AURORA         CLEAR     58  57  97 CALM      30.01F
LANSING*       CLEAR     62  56  81 CALM      30.02S
JOLIET*        CLEAR     65  61  88 CALM      30.01S
WAUKEGAN       CLEAR     60  58  92 CALM      29.99F
DUPAGE AIRPORT CLEAR     60  60 100 CALM      30.01S FOG
WHEELING       CLEAR     63  61  93 CALM      30.02S
MORRIS*        CLEAR     60  58  94 CALM      29.99S
NORTHERLY ISL    N/A     69  56  62 S5          N/A
$$

WIZ051-052-058>065-066-070>072-200900-
SOUTHEAST WISCONSIN

CITY           SKY/WX    TMP DP  RH WIND       PRES   REMARKS
MILWAUKEE      CLEAR     67  58  72 CALM      30.00F
KENOSHA*       CLEAR     58  56  93 CALM      30.01S
RACINE*        CLEAR     63  56  78 SW3       30.01F
$$

INZ001>003-010>013-019-020-200900-
NORTHWEST INDIANA

CITY           SKY/WX    TMP DP  RH WIND       PRES   REMARKS
GARY*          CLEAR     65  59  78 SE5       30.02S
MICHIGAN CITY* NOT AVBL
RENSSELAER*    NOT AVBL
VALPARAISO     CLEAR     60  58  92 CALM      30.03S
$$

LMZ740>746-200900-
SOUTHERN LAKE MICHIGAN

STATION/POSITION TIME  SKY/WX   TEMP WIND        PRES    VSBY
                                AIR  DIR/SP/G
                 (UTC)          (F)  (DEG/KT/KT) (MB)    (MI)
HARRISON CRIB    0740            73  190/  9/  9   N/A
BURNHAM HARBOR   NOT AVBL
CALUMET HARBOR   0730            69  150/  4/  5 1015.6F
BURNS HARBOR     0740            71  150/  6/ 10 1016.9S
MICHIGAN CITY    0740            66  130/  8/  9   N/A
$$

ABBREVIATIONS USED IN REMARKS
   TC - TEMPERATURE IN CELSIUS
  WCI - WIND CHILL INDEX
   HX - HEAT INDEX
  VSB - VISIBILITY
$$




USA.gov is the U.S. government's official web portal to all federal, state and local government web resources and services.